Weather History for Columbia, MO

Change the Weather History Date:

Monday, October 15, 2012

  Actual Average Record
Temperature  
Mean Temperature 60 °F 56 °F  
Max Temperature 73 °F 68 °F 91 °F (1897)
Min Temperature 46 °F 45 °F 29 °F (1893)
Degree Days  
Heating Degree Days 5 9  
Month to date heating degree days 156 112  
Since 1 July heating degree days 205 180  
Cooling Degree Days 0 0  
Month to date cooling degree days 2 15  
Year to date cooling degree days 1866 1242  
Growing Degree Days 10 (Base 50)    
Moisture  
Dew Point 43 °F    
Average Humidity 61    
Maximum Humidity 86    
Minimum Humidity 35    
Precipitation  
Precipitation 0.00 in 0.11 in 1.22 in (1980)
Month to date precipitation 1.63 1.71  
Year to date precipitation 26.70 35.33  
Snow  
Snow 0.00 in 0.00 in 0.00 in (2012)
Month to date snowfall 0.0 0.0  
Since 1 July snowfall 0.0 0.0  
Since 1 September snowfall 0.0 0.0  
Snow Depth 0.00 in    
Sea Level Pressure  
Sea Level Pressure 29.97 in    
Wind  
Wind Speed 5 mph (South)    
Max Wind Speed 9 mph    
Max Gust Speed 13 mph    
Visibility 10 miles    
Events      
T = Trace of Precipitation, MM = Missing Value Source: NWS Daily Summary

Daily Weather History Graph

Daily Weather History Graph

Search for Another Location

Airport:

Trip Planner

Search our weather history database for the weather conditions in past years. The results will help you decide how hot, cold, wet, or windy it might be!

Date:

Astronomy

Oct. 15, 2012 Rise Set
Actual Time 7:18 AM CDT 6:29 PM CDT
Civil Twilight 6:51 AM CDT 6:56 PM CDT
Nautical Twilight 6:20 AM CDT 7:27 PM CDT
Astronomical Twilight 5:50 AM CDT 7:58 PM CDT
Moon 7:29 AM CDT (10/15) 6:30 PM CDT (10/15)
Length of Visible Light 12h 04m
Length of Day
11h 10m
New Moon, 0% of the Moon is Illuminated
Oct 15
New Moon
Oct 21
First Quarter
Oct 29
Full
Nov 6
Last Quarter
Nov 13
New

Hourly Weather History & Observations

Time (CDT) Temp. Windchill Dew Point Humidity Pressure Visibility Wind Dir Wind Speed Gust Speed Precip Events Conditions
12:54 AM 50.0 °F - 43.0 °F 77% 29.98 in 10.0 mi WSW 4.6 mph - N/A   Clear
1:54 AM 46.9 °F - 42.1 °F 83% 29.98 in 10.0 mi SW 5.8 mph - N/A   Clear
2:54 AM 50.0 °F - 42.1 °F 74% 29.99 in 10.0 mi West 6.9 mph - N/A   Clear
3:54 AM 48.9 °F - 42.1 °F 77% 29.98 in 10.0 mi West 6.9 mph - N/A   Clear
4:54 AM 48.0 °F - 42.1 °F 80% 29.98 in 10.0 mi West 5.8 mph - N/A   Clear
5:54 AM 46.9 °F - 41.0 °F 80% 29.99 in 10.0 mi West 3.5 mph - N/A   Clear
6:54 AM 46.0 °F 43.9 °F 41.0 °F 83% 30.00 in 10.0 mi WNW 4.6 mph - N/A   Clear
7:54 AM 46.9 °F - 42.1 °F 83% 30.01 in 10.0 mi NW 3.5 mph - N/A   Clear
8:54 AM 53.1 °F - 44.1 °F 71% 30.02 in 10.0 mi Calm Calm - N/A   Clear
9:54 AM 57.9 °F - 46.0 °F 65% 30.04 in 10.0 mi Calm Calm - N/A   Clear
10:54 AM 62.1 °F - 43.0 °F 50% 30.03 in 10.0 mi Calm Calm - N/A   Clear
11:54 AM 64.9 °F - 45.0 °F 48% 30.02 in 10.0 mi SE 3.5 mph - N/A   Clear
12:54 PM 68.0 °F - 43.0 °F 40% 30.01 in 10.0 mi SW 4.6 mph - N/A   Clear
1:54 PM 69.1 °F - 42.1 °F 38% 29.99 in 10.0 mi Calm Calm - N/A   Clear
2:54 PM 70.0 °F - 44.1 °F 39% 29.96 in 10.0 mi South 4.6 mph - N/A   Clear
3:54 PM 72.0 °F - 43.0 °F 35% 29.94 in 10.0 mi Variable 3.5 mph - N/A   Clear
4:54 PM 71.1 °F - 44.1 °F 38% 29.93 in 10.0 mi SSE 3.5 mph - N/A   Clear
5:54 PM 68.0 °F - 46.9 °F 47% 29.92 in 10.0 mi East 4.6 mph - N/A   Clear
6:54 PM 63.0 °F - 45.0 °F 52% 29.92 in 10.0 mi East 5.8 mph - N/A   Clear
7:54 PM 61.0 °F - 45.0 °F 56% 29.93 in 10.0 mi East 5.8 mph - N/A   Clear
8:54 PM 60.1 °F - 44.1 °F 55% 29.92 in 10.0 mi ESE 6.9 mph - N/A   Clear
9:54 PM 57.9 °F - 44.1 °F 60% 29.91 in 10.0 mi ESE 6.9 mph - N/A   Clear
10:54 PM 57.0 °F - 44.1 °F 62% 29.91 in 10.0 mi SE 6.9 mph - N/A   Clear
11:54 PM 55.9 °F - 44.1 °F 64% 29.91 in 10.0 mi SE 8.1 mph - N/A   Clear